This demonstration page uses our WeatherBlox Daily Observations layout. Learn more.

Left ArrowRight Arrow

39.01783, -85.05884

Hourly Observations for November 17, 2021

Temp ( °F °C ) Dew Point ( °F °C ) Humidity (%) Winds ( mph kmh ) Pressure ( in mb ) Visibility ( mi km ) Precip ( " mm )
12:52 am 00:52 Cloudy 57 13.9 53 11.7 87 87 S 12 19 29.99 1016 8 13 N/A
1:52 am 01:52 Mostly Cloudy 58 14.4 54 12.2 87 87 S 14 22 29.98 1015 8 13 N/A
2:52 am 02:52 Cloudy 59 15 54 12.2 83 83 SSW 13 20 29.99 1016 9 14 N/A
3:52 am 03:52 Cloudy 59 15 54 12.2 83 83 SSW 12 19 29.98 1015 10 16 N/A
4:52 am 04:52 Cloudy 61 16.1 54 12.2 78 78 SSW 16 26 30.00 1016 10 16 N/A
5:52 am 05:52 Cloudy 60 15.6 53 11.7 78 78 SSW 13 20 30.01 1016 10 16 N/A
6:52 am 06:52 Mostly Cloudy 60 15.6 52 11.1 75 75 SSW 17 28 30.00 1016 10 16 N/A
7:52 am 07:52 Mostly Cloudy 60 15.6 52 11.1 75 75 SSW 15 24 30.01 1016 10 16 N/A
8:52 am 08:52 Cloudy 60 15.6 52 11.1 75 75 SSW 15 24 30.02 1017 10 16 N/A
9:52 am 09:52 Cloudy 62 16.7 53 11.7 73 73 SSW 16 26 30.02 1017 10 16 N/A
10:52 am 10:52 Cloudy 64 17.8 53 11.7 68 68 SSW 20 31 30.01 1016 10 16 N/A
11:33 am 11:33 Mostly Cloudy 64 17.8 53 11.7 68 68 SSW 16 26 30.00 1016 10 16 N/A
11:52 am 11:52 Cloudy 64 17.8 53 11.7 68 68 SSW 18 30 30.01 1016 10 16 N/A
12:52 pm 12:52 Cloudy 64 17.8 53 11.7 68 68 SSW 13 20 29.98 1015 10 16 N/A
1:52 pm 13:52 Mostly Cloudy 65 18.3 54 12.2 68 68 S 13 20 29.97 1015 10 16 N/A
2:52 pm 14:52 Mostly Cloudy 67 19.4 53 11.7 61 61 SSW 13 20 29.96 1015 10 16 N/A
3:52 pm 15:52 Mostly Cloudy 67 19.4 52 11.1 59 59 SSW 14 22 29.96 1015 10 16 N/A
4:52 pm 16:52 Mostly Cloudy 67 19.4 51 10.6 57 57 S 18 30 29.97 1015 10 16 N/A
5:52 pm 17:52 Cloudy 65 18.3 51 10.6 61 61 S 14 22 29.98 1015 10 16 N/A
6:52 pm 18:52 Cloudy 65 18.3 51 10.6 61 61 SSW 16 26 29.99 1016 10 16 N/A
7:52 pm 19:52 Cloudy 64 17.8 51 10.6 63 63 S 17 28 29.98 1015 10 16 N/A
8:52 pm 20:52 Cloudy 64 17.8 51 10.6 63 63 S 16 26 29.98 1015 10 16 N/A
9:52 pm 21:52 Partly Cloudy 63 17.2 51 10.6 65 65 SSW 17 28 29.98 1015 10 16 N/A
10:52 pm 22:52 Mostly Cloudy 64 17.8 52 11.1 65 65 SSW 16 26 29.96 1015 10 16 N/A
11:52 pm 23:52 Mostly Cloudy 64 17.8 51 10.6 63 63 SSW 15 24 29.95 1014 10 16 N/A

Powered by AerisWeather